TimeCST,TemperatureF,Dew PointF,Humidity,Sea Level PressureIn,VisibilityMPH,Wind Direction,Wind SpeedMPH,Gust SpeedMPH,PrecipitationIn,Events,Conditions,WindDirDegrees,DateUTC
12:53 AM,44.1,42.1,93,30.20,9.0,Calm,Calm,-,N/A,,Clear,0,2012-11-20 06:53:00
1:53 AM,42.1,39.9,92,30.20,7.0,Calm,Calm,-,N/A,,Clear,0,2012-11-20 07:53:00
2:53 AM,44.1,41.0,89,30.18,10.0,SE,3.5,-,N/A,,Partly Cloudy,140,2012-11-20 08:53:00
3:53 AM,46.0,43.0,89,30.19,8.0,Calm,Calm,-,N/A,,Clear,0,2012-11-20 09:53:00
4:53 AM,46.0,43.0,89,30.19,10.0,Calm,Calm,-,N/A,,Partly Cloudy,0,2012-11-20 10:53:00
5:53 AM,46.9,44.1,90,30.20,9.0,Calm,Calm,-,N/A,,Mostly Cloudy,0,2012-11-20 11:53:00
6:53 AM,46.9,44.1,90,30.23,7.0,Calm,Calm,-,N/A,,Clear,0,2012-11-20 12:53:00
7:53 AM,52.0,46.0,80,30.23,9.0,NNW,4.6,-,N/A,,Clear,340,2012-11-20 13:53:00
8:53 AM,55.9,46.9,72,30.24,8.0,Calm,Calm,-,N/A,,Clear,0,2012-11-20 14:53:00
9:53 AM,57.9,46.0,65,30.23,10.0,Calm,Calm,-,N/A,,Mostly Cloudy,0,2012-11-20 15:53:00
10:53 AM,62.1,48.0,60,30.22,8.0,Calm,Calm,-,N/A,,Scattered Clouds,0,2012-11-20 16:53:00
11:53 AM,68.0,45.0,43,30.19,10.0,North,5.8,-,N/A,,Overcast,10,2012-11-20 17:53:00
12:53 PM,69.1,46.0,44,30.16,10.0,Variable,5.8,-,N/A,,Partly Cloudy,0,2012-11-20 18:53:00
1:53 PM,70.0,42.1,36,30.14,10.0,North,5.8,17.3,N/A,,Mostly Cloudy,350,2012-11-20 19:53:00
2:53 PM,71.1,41.0,34,30.13,10.0,North,8.1,-,N/A,,Mostly Cloudy,350,2012-11-20 20:53:00
3:53 PM,70.0,39.0,32,30.14,10.0,North,5.8,-,N/A,,Clear,360,2012-11-20 21:53:00
4:53 PM,63.0,44.1,50,30.14,10.0,Calm,Calm,-,N/A,,Partly Cloudy,0,2012-11-20 22:53:00
5:53 PM,55.9,46.9,72,30.14,10.0,Calm,Calm,-,N/A,,Clear,0,2012-11-20 23:53:00
6:53 PM,52.0,46.0,80,30.15,10.0,Calm,Calm,-,N/A,,Clear,0,2012-11-21 00:53:00
7:53 PM,50.0,46.0,86,30.17,10.0,Calm,Calm,-,N/A,,Clear,0,2012-11-21 01:53:00
8:53 PM,48.0,45.0,89,30.18,10.0,Calm,Calm,-,N/A,,Clear,0,2012-11-21 02:53:00
9:53 PM,46.9,44.1,90,30.18,10.0,Calm,Calm,-,N/A,,Clear,0,2012-11-21 03:53:00
10:53 PM,45.0,43.0,93,30.19,10.0,Calm,Calm,-,N/A,,Clear,0,2012-11-21 04:53:00
11:53 PM,45.0,41.0,86,30.18,10.0,Calm,Calm,-,N/A,,Clear,0,2012-11-21 05:53:00